Regional Weather Roundup
Issued by NWS

Home | Current Version | Previous Version | Graphics & Text | Print | Product List | Glossary On
Versions: 1 2 3 4 5 6 7 8 9 10 11 12 13 14 15 16 17 18 19 20 21 22 23 24 25 26 27 28 29 30 31 32 33 34 35 36 37 38 39 40 41 42 43 44 45 46 47 48 49 50
000
ASUS45 KCYS 292110
RWRWY

WYOMING REGIONAL WEATHER ROUNDUP
NATIONAL WEATHER SERVICE CHEYENNE WY
300 PM MDT TUE JUL 29 2014

NOTE:  "FAIR" INDICATES FEW OR NO CLOUDS BELOW 12,000 FEET
WITH NO SIGNIFICANT WEATHER AND/OR OBSTRUCTIONS TO VISIBILITY.

WYZ001-292200-
YELLOWSTONE NATIONAL PARK

CITY           SKY/WX    TMP DP  RH WIND       PRES   REMARKS
LK YELLOWSTONE   N/A     64  48  56 VRB3      30.46F
W YELLOWSTONE  NOT AVBL

$$
WYZ002>013-054>058-071-098>099-292200-
NORTHERN WYOMING

CITY           SKY/WX    TMP DP  RH WIND       PRES   REMARKS
JACKSON        CLOUDY    63  54  72 N18       30.33S
CODY           NOT AVBL
GREYBULL       PTSUNNY   71  57  61 SE18      30.26S
WORLAND        CLOUDY    64  59  83 S10       30.28F
SHERIDAN       PTSUNNY   83  43  24 SE10G20   30.23S
BUFFALO        CLOUDY    70  50  49 S13       30.32F
GILLETTE       CLOUDY    68  59  73 SW10      30.28F
HULETT         FAIR      77  55  47 MISG      30.27
NEWCASTLE      LGT RAIN  64  57  77 CALM      30.29

$$
WYZ014>020-022>026-101>103-292200-
CENTRAL WYOMING

CITY           SKY/WX    TMP DP  RH WIND       PRES   REMARKS
BIG PINEY      LGT RAIN  61  53  75 W7        30.40R
PINEDALE       LGT RAIN  57  55  94 W6        30.40S
DUBOIS         RAIN      54  52  94 E3        30.45R
LANDER         LGT RAIN  59  57  93 SW7       30.35S
RIVERTON       LGT RAIN  61  58  90 N7        30.36R
CASPER         CLOUDY    63  51  65 N14       30.32R
DOUGLAS        CLOUDY    67  54  63 NW8       30.27R

$$
WYZ021-027>030-104>119-292200-
SOUTHERN WYOMING

CITY           SKY/WX    TMP DP  RH WIND       PRES   REMARKS
EVANSTON       CLOUDY    59  56  89 S6        30.35F
KEMMERER       LGT RAIN  57  55  94 NE6       30.38F
FORT BRIDGER   CLOUDY    60  59  96 E9        30.37F
ROCK SPRINGS   CLOUDY    67  51  56 NE21      30.33F
DIXON          CLOUDY    65  57  74 W7        30.34S
RAWLINS        LGT RAIN  60  56  86 W8        30.34R FOG
SARATOGA       CLOUDY    57  54  88 S9        30.36R
LARAMIE        CLOUDY    61  51  70 SE13      30.33R
CHEYENNE       LGT RAIN  63  58  83 CALM      30.30R
TORRINGTON     MOSUNNY   83  59  44 E9        30.17F
PINE BLUFFS    FAIR      73  55  53 E8        30.22F

$$



USA.gov is the U.S. government's official web portal to all federal, state and local government web resources and services.